Spitfire Channel Observation History
Time Wind Speed Temp Pressure Rel. Hum Rain
04/07:00am S 17-19 kts n/a n/a n/a n/a
04/06:30am S 16-20 kts n/a n/a n/a n/a
04/06:00am S 16-19 kts n/a n/a n/a n/a
04/05:30am S 17-21 kts n/a n/a n/a n/a
04/05:00am S 18-21 kts n/a n/a n/a n/a
04/04:30am SSE 18-22 kts n/a n/a n/a n/a
04/04:00am SSE 16-20 kts n/a n/a n/a n/a
04/03:30am SSE 17-19 kts n/a n/a n/a n/a
04/03:00am S 17-19 kts n/a n/a n/a n/a
04/02:30am S 18-21 kts n/a n/a n/a n/a
04/02:00am S 16-23 kts n/a n/a n/a n/a
04/01:30am S 14-17 kts n/a n/a n/a n/a
04/01:00am S 12-14 kts n/a n/a n/a n/a
04/12:30am SSW 11-13 kts n/a n/a n/a n/a
04/12:00am S 13-16 kts n/a n/a n/a n/a
Time Wind Speed Temp Pressure Rel. Hum Rain
03/11:30pm SSE 16-18 kts n/a n/a n/a n/a
03/11:00pm SSE 16-18 kts n/a n/a n/a n/a
03/10:30pm SSE 14-16 kts n/a n/a n/a n/a
03/10:00pm SSE 14-16 kts n/a n/a n/a n/a
03/09:30pm SSE 12-15 kts n/a n/a n/a n/a
03/09:00pm SE 13-15 kts n/a n/a n/a n/a
03/08:30pm SE 11-14 kts n/a n/a n/a n/a
03/08:00pm SE 9-10 kts n/a n/a n/a n/a
03/07:30pm ESE 8-10 kts n/a n/a n/a n/a
03/07:00pm E 8-10 kts n/a n/a n/a n/a
03/06:30pm E 9-11 kts n/a n/a n/a n/a
03/06:00pm E 9-11 kts n/a n/a n/a n/a
03/05:30pm E 9-10 kts n/a n/a n/a n/a
03/05:00pm ENE 7-9 kts n/a n/a n/a n/a
03/04:30pm E 6-8 kts n/a n/a n/a n/a
03/04:00pm E 7-9 kts n/a n/a n/a n/a
03/03:30pm ESE 6-8 kts n/a n/a n/a n/a
03/03:00pm ESE 5-6 kts n/a n/a n/a n/a
03/02:30pm SE 4-5 kts n/a n/a n/a n/a
03/02:00pm S 4-5 kts n/a n/a n/a n/a
03/01:30pm S 5-6 kts n/a n/a n/a n/a
03/01:00pm SSW 4-5 kts n/a n/a n/a n/a
03/12:30pm S 4-5 kts n/a n/a n/a n/a
03/12:00pm SSE 6-8 kts n/a n/a n/a n/a
03/11:30am S 7-9 kts n/a n/a n/a n/a
03/11:00am SSW 9-11 kts n/a n/a n/a n/a
03/10:30am SSW 10-12 kts n/a n/a n/a n/a
03/10:00am SSW 7-10 kts n/a n/a n/a n/a
03/09:30am SSW 9-11 kts n/a n/a n/a n/a
03/09:00am SW 9-12 kts n/a n/a n/a n/a
03/08:30am SW 10-12 kts n/a n/a n/a n/a
03/08:00am SW 13-15 kts n/a n/a n/a n/a
03/07:30am SW 11-13 kts n/a n/a n/a n/a
03/07:00am WSW 13-16 kts n/a n/a n/a n/a
03/06:30am WSW 15-18 kts n/a n/a n/a n/a
03/06:00am WSW 13-16 kts n/a n/a n/a n/a
03/05:30am WSW 12-16 kts n/a n/a n/a n/a
03/05:00am WSW 13-17 kts n/a n/a n/a n/a
03/04:30am WSW 11-14 kts n/a n/a n/a n/a
03/04:00am WSW 13-15 kts n/a n/a n/a n/a
03/03:30am WSW 14-16 kts n/a n/a n/a n/a
03/03:00am WSW 10-12 kts n/a n/a n/a n/a
03/02:30am WSW 9-11 kts n/a n/a n/a n/a
03/02:00am WSW 11-13 kts n/a n/a n/a n/a
03/01:30am WSW 13-15 kts n/a n/a n/a n/a
03/01:00am WSW 11-13 kts n/a n/a n/a n/a
03/12:30am WSW 14-17 kts n/a n/a n/a n/a
03/12:00am WSW 15-19 kts n/a n/a n/a n/a
Time Wind Speed Temp Pressure Rel. Hum Rain
02/11:30pm WSW 14-18 kts n/a n/a n/a n/a
02/11:00pm WSW 18-22 kts n/a n/a n/a n/a
02/10:30pm WSW 17-21 kts n/a n/a n/a n/a
02/10:00pm WSW 18-23 kts n/a n/a n/a n/a
02/09:30pm WSW 16-21 kts n/a n/a n/a n/a
02/09:00pm WSW 19-22 kts n/a n/a n/a n/a
02/08:30pm WSW 18-24 kts n/a n/a n/a n/a
02/08:00pm WSW 14-19 kts n/a n/a n/a n/a
02/07:30pm WSW 16-18 kts n/a n/a n/a n/a
02/07:00pm WSW 12-15 kts n/a n/a n/a n/a
02/06:30pm WSW 15-19 kts n/a n/a n/a n/a
02/06:00pm WSW 9-12 kts n/a n/a n/a n/a
02/05:30pm SW 15-18 kts n/a n/a n/a n/a
02/05:00pm SW 10-13 kts n/a n/a n/a n/a
02/04:30pm WSW 11-13 kts n/a n/a n/a n/a
02/04:00pm SW 13-16 kts n/a n/a n/a n/a
02/03:30pm WSW 11-17 kts n/a n/a n/a n/a
02/03:00pm SW 14-18 kts n/a n/a n/a n/a
02/02:30pm SW 14-20 kts n/a n/a n/a n/a
02/02:00pm SW 15-21 kts n/a n/a n/a n/a
02/01:30pm SW 16-21 kts n/a n/a n/a n/a
02/01:00pm SW 17-21 kts n/a n/a n/a n/a
02/12:30pm SW 19-23 kts n/a n/a n/a n/a
02/12:00pm SW 20-24 kts n/a n/a n/a n/a
02/11:30am SW 19-26 kts n/a n/a n/a n/a
02/11:00am SW 16-21 kts n/a n/a n/a n/a
02/10:30am SW 22-28 kts n/a n/a n/a n/a
02/10:00am SW 24-30 kts n/a n/a n/a n/a
02/09:30am WSW 19-24 kts n/a n/a n/a n/a
02/09:00am SW 19-27 kts n/a n/a n/a n/a
02/08:30am WSW 19-26 kts n/a n/a n/a n/a
02/08:00am WSW 15-19 kts n/a n/a n/a n/a
02/07:30am WSW 19-23 kts n/a n/a n/a n/a
02/07:00am WSW 21-25 kts n/a n/a n/a n/a
02/06:30am WSW 16-20 kts n/a n/a n/a n/a
02/06:00am WSW 16-21 kts n/a n/a n/a n/a
02/05:30am WSW 14-20 kts n/a n/a n/a n/a
02/05:00am WSW 13-16 kts n/a n/a n/a n/a
02/04:30am WSW 10-11 kts n/a n/a n/a n/a
02/04:00am WSW 9-11 kts n/a n/a n/a n/a
02/03:30am WSW 11-14 kts n/a n/a n/a n/a
02/03:00am W 12-14 kts n/a n/a n/a n/a
02/02:30am WNW 13-16 kts n/a n/a n/a n/a
02/02:00am NW 15-17 kts n/a n/a n/a n/a
02/01:30am NW 14-19 kts n/a n/a n/a n/a
02/01:00am NW 10-15 kts n/a n/a n/a n/a
02/12:30am NW 11-18 kts n/a n/a n/a n/a
02/12:00am NNW 16-20 kts n/a n/a n/a n/a